| time (UTC) | temp F | wind direction | speed MPH | gust MPH | rain 1hr in | rain 24hr in | rain mn in | humidity % | barometer mb |
| 20260503210025 | 65 | 219 | 5.0 | 16.0 | 0.00 | 0.07 | 0.07 | 43 | 1007.8 |
| 20260503204529 | 65 | 215 | 4.0 | 11.0 | 0.00 | 0.07 | 0.07 | 42 | 1008.2 |
| 20260503203025 | 64 | 161 | 5.0 | 14.0 | 0.00 | 0.07 | 0.07 | 42 | 1008.7 |
| 20260503201532 | 64 | 209 | 7.0 | 17.0 | 0.00 | 0.07 | 0.07 | 41 | 1008.9 |
| 20260503200030 | 63 | 218 | 6.0 | 18.0 | 0.00 | 0.07 | 0.07 | 44 | 1008.9 |
| 20260503194527 | 64 | 217 | 6.0 | 15.0 | 0.00 | 0.07 | 0.07 | 43 | 1009.0 |
| 20260503193028 | 63 | 188 | 7.0 | 15.0 | 0.00 | 0.07 | 0.07 | 50 | 1009.1 |
| 20260503191526 | 62 | 200 | 7.0 | 18.0 | 0.00 | 0.07 | 0.07 | 51 | 1009.4 |
| 20260503190037 | 60 | 203 | 2.0 | 11.0 | 0.00 | 0.07 | 0.07 | 61 | 1009.5 |
| 20260503184530 | 59 | 180 | 3.0 | 10.0 | 0.00 | 0.07 | 0.07 | 63 | 1010.0 |
| 20260503183034 | 57 | 200 | 3.0 | 9.0 | 0.00 | 0.07 | 0.07 | 69 | 1010.2 |
| 20260503181531 | 55 | 59 | 2.0 | 8.0 | 0.00 | 0.07 | 0.07 | 76 | 1010.5 |
| 20260503180024 | 53 | 360 | 2.0 | 9.0 | 0.01 | 0.07 | 0.07 | 76 | 1011.1 |
| 20260503174506 | 51 | 93 | 2.0 | 7.0 | 0.02 | 0.07 | 0.07 | 81 | 1011.3 |
| 20260503173007 | 50 | 146 | 1.0 | 9.0 | 0.03 | 0.07 | 0.07 | 83 | 1012.1 |
| 20260503171505 | 49 | 198 | 2.0 | 6.0 | 0.03 | 0.07 | 0.07 | 85 | 1012.5 |
| 20260503081528 | 43 | 209 | 0.0 | 3.0 | 0.00 | 0.00 | 0.00 | 66 | 1015.4 |
| 20260503071520 | 40 | 237 | 0.0 | 0.0 | 0.00 | 0.00 | 0.00 | 77 | 1015.5 |
| 20260503054534 | 41 | 237 | 0.0 | 0.0 | 0.00 | 0.00 | 0.00 | 75 | 1016.3 |
| 20260503053019 | 41 | 237 | 0.0 | 1.0 | 0.00 | 0.00 | 0.00 | 72 | 1016.5 |
| 20260503051516 | 41 | 237 | 0.0 | 0.0 | 0.00 | 0.00 | 0.00 | 73 | 1016.5 |
| 20260503050015 | 42 | 237 | 0.0 | 0.0 | 0.00 | 0.00 | 0.00 | 72 | 1016.6 |
| 20260503044511 | 42 | 237 | 0.0 | 0.0 | 0.00 | 0.00 | 0.00 | 73 | 1016.7 |
| 20260503043007 | 42 | 237 | 0.0 | 0.0 | 0.00 | 0.00 | 0.00 | 70 | 1016.6 |
| 20260503040029 | 42 | 238 | 0.0 | 2.0 | 0.00 | 0.00 | 0.00 | 70 | 1016.9 |
| 20260503034519 | 42 | 293 | 0.0 | 1.0 | 0.00 | 0.00 | 0.00 | 72 | 1017.0 |
| 20260503033012 | 43 | 293 | 0.0 | 0.0 | 0.00 | 0.00 | 0.00 | 73 | 1016.9 |
| 20260503031528 | 43 | 293 | 0.0 | 0.0 | 0.00 | 0.00 | 0.00 | 74 | 1017.0 |
| 20260503030033 | 43 | 293 | 0.0 | 0.0 | 0.00 | 0.00 | 0.00 | 74 | 1016.9 |
| 20260503023023 | 44 | 293 | 0.0 | 0.0 | 0.00 | 0.00 | 0.00 | 74 | 1016.8 |
| 20260503021521 | 45 | 293 | 0.0 | 0.0 | 0.00 | 0.00 | 0.00 | 72 | 1016.9 |
| 20260503020028 | 46 | 293 | 0.0 | 0.0 | 0.00 | 0.00 | 0.00 | 69 | 1016.8 |
| 20260503014530 | 47 | 293 | 0.0 | 0.0 | 0.00 | 0.00 | 0.00 | 65 | 1016.6 |
| 20260503011532 | 50 | 293 | 0.0 | 0.0 | 0.00 | 0.00 | 0.00 | 58 | 1016.6 |
| 20260503010027 | 52 | 293 | 0.0 | 1.0 | 0.00 | 0.00 | 0.00 | 52 | 1016.6 |
| 20260503001518 | 54 | 246 | 1.0 | 6.0 | 0.00 | 0.00 | 0.00 | 39 | 1016.7 |
| 20260502234523 | 55 | 234 | 1.0 | 7.0 | 0.00 | 0.00 | 0.00 | 38 | 1016.8 |
| 20260502233007 | 55 | 312 | 1.0 | 7.0 | 0.00 | 0.00 | 0.00 | 38 | 1016.9 |
| 20260502231506 | 55 | 306 | 1.0 | 8.0 | 0.00 | 0.00 | 0.00 | 39 | 1017.0 |
| 20260502230004 | 56 | 291 | 1.0 | 8.0 | 0.00 | 0.00 | 0.00 | 37 | 1017.2 |
| 20260502224517 | 56 | 340 | 1.0 | 6.0 | 0.00 | 0.00 | 0.00 | 38 | 1017.1 |
| 20260502223016 | 56 | 324 | 2.0 | 8.0 | 0.00 | 0.00 | 0.00 | 36 | 1017.2 |
| 20260502221513 | 56 | 205 | 1.0 | 5.0 | 0.00 | 0.00 | 0.00 | 38 | 1017.2 |
| 20260502214508 | 56 | 304 | 3.0 | 9.0 | 0.00 | 0.00 | 0.00 | 37 | 1017.5 |
| 20260502211522 | 56 | 17 | 3.0 | 8.0 | 0.00 | 0.00 | 0.00 | 39 | 1017.7 |